Location: Treviso
(45.6669°N, 12.2430°E)
Time: 09:36:09
(UTC+01:00)

ISS - Pass Details

Date: 02 December 2021
Orbit: 417 x 422 km, 51.6° (Epoch: 06 December)

Event Time Altitude Azimuth Distance (km) Brightness Sun altitude
Rises 17:56:16 0° 297° (WNW) 2,379 0.8 -14.9°
Reaches altitude 10° 17:58:28 10° 305° (NW) 1,513 -0.4 -15.2°
Maximum altitude 18:01:41 39° 16° (NNE) 648 -3.1 -15.8°
Enters shadow 18:02:21 35° 47° (NE) 707 -3.1 -15.9°
